,,Stat6,,Stat2,,Stat8,,Stat9,,Stat10,,Wind1,,Wind1,
time,status,PA1M_AVG,status,PR1M_SUM,status,RH1M_AVG,status,SR1M_AVG,status,TA1M_AVG,status,W1dAve1m,status,W1sAve1m,
2008-09-10, 07:36:00,INVALID,0,INVALID - VALUE NOT AVAILABLE,0,INVALID - VALUE NOT AVAILABLE,0,INVALID,0,INVALID - VALUE NOT AVAILABLE,0,INVALID - VALUE NOT AVAILABLE,360,INVALID - VALUE NOT AVAILABLE,0,
2008-09-10, 07:37:00,VALID,916.972,VALID,0,VALID,99.9858,VALID,131.194,VALID,19.865,VALID,143,VALID,0,
2008-09-10, 07:38:00,VALID,916.995,VALID,0,VALID,99.8884,VALID,133.011,VALID,19.9462,VALID,147,VALID,0,
2008-09-10, 07:39:00,VALID,917.002,VALID,0,VALID,99.4585,VALID,134.964,VALID,19.9978,VALID,139,VALID,0.0272569,
2008-09-10, 07:40:00,VALID,917.023,VALID,0,VALID,99.2475,VALID,138.207,VALID,20.0562,VALID,155,VALID,0.0273438,
2008-09-10, 07:41:00,VALID,917.061,VALID,0,VALID,99.1623,VALID,145.067,VALID,20.1471,VALID,166,VALID,0,
2008-09-10, 07:42:00,VALID,917.079,VALID,0,VALID,98.8406,VALID,154.644,VALID,20.2182,VALID,166,VALID,0,
2008-09-10, 07:43:00,VALID,917.093,VALID,0,VALID,98.5939,VALID,165.512,VALID,20.3093,VALID,170,VALID,0,
2008-09-10, 07:44:00,VALID,917.104,VALID,0,VALID,98.4654,VALID,175.616,VALID,20.4229,VALID,172,VALID,0,
2008-09-10, 07:45:00,VALID,917.129,VALID,0,VALID,97.9377,VALID,188.182,VALID,20.5168,VALID,171,VALID,0,
2008-09-10, 07:46:00,VALID,917.147,VALID,0,VALID,97.3464,VALID,194.753,VALID,20.5947,VALID,170,VALID,0.0245276,
2008-09-10, 07:47:00,VALID,917.153,VALID,0,VALID,96.4423,VALID,199.508,VALID,20.6274,VALID,155,VALID,0.0025436,
2008-09-10, 07:48:00,VALID,917.151,VALID,0,VALID,96.4919,VALID,207.828,VALID,20.7377,VALID,149,VALID,0,
2008-09-10, 07:49:00,VALID,917.171,VALID,0,VALID,96.0672,VALID,216.149,VALID,20.8578,VALID,149,VALID,0,
2008-09-10, 07:50:00,VALID,917.188,VALID,0,VALID,95.6692,VALID,218.136,VALID,20.9649,VALID,149,VALID,0,
2008-09-10, 07:51:00,VALID,917.219,VALID,0,VALID,95.5941,VALID,217.185,VALID,21.1727,VALID,149,VALID,0,
2008-09-10, 07:52:00,VALID,917.229,VALID,0,VALID,94.718,VALID,218.323,VALID,21.372,VALID,149,VALID,0,
2008-09-10, 07:53:00,VALID,917.259,VALID,0,VALID,93.8317,VALID,214.723,VALID,21.5509,VALID,149,VALID,0,
2008-09-10, 07:54:00,VALID,917.274,VALID,0,VALID,92.0006,VALID,209.713,VALID,21.674,VALID,149,VALID,0,
2008-09-10, 07:55:00,VALID,917.283,VALID,0,VALID,90.8727,VALID,211.921,VALID,21.7132,VALID,149,VALID,0,
2008-09-10, 07:56:00,VALID,917.297,VALID,0,VALID,90.5649,VALID,212.226,VALID,21.8431,VALID,149,VALID,0,
2008-09-10, 07:57:00,VALID,917.308,VALID,0,VALID,88.0573,VALID,204.025,VALID,21.9824,VALID,179,VALID,0,
2008-09-10, 07:58:00,VALID,917.322,VALID,0,VALID,87.4266,VALID,197.029,VALID,22.0022,VALID,233,VALID,0,
2008-09-10, 07:59:00,VALID,917.329,VALID,0,VALID,87.5004,VALID,194.023,VALID,21.9892,VALID,233,VALID,0,
2008-09-10, 08:00:00,VALID,917.342,VALID,0,VALID,88.0853,VALID,197.147,VALID,21.9892,VALID,232,VALID,0,
2008-09-10, 08:01:00,VALID,917.349,VALID,0,VALID,88.5545,VALID,204.127,VALID,22.0022,VALID,232,VALID,0,
2008-09-10, 08:02:00,VALID,917.358,VALID,0,VALID,88.2557,VALID,219.868,VALID,22.0084,VALID,232,VALID,0,
2008-09-10, 08:03:00,VALID,917.388,VALID,0,VALID,88.3155,VALID,245.594,VALID,22.0057,VALID,232,VALID,0,
2008-09-10, 08:04:00,VALID,917.398,VALID,0,VALID,88.58,VALID,262.829,VALID,22.0538,VALID,232,VALID,0,
2008-09-10, 08:05:00,VALID,917.411,VALID,0,VALID,88.332,VALID,264.867,VALID,22.1745,VALID,232,VALID,0,
2008-09-10, 08:06:00,VALID,917.434,VALID,0,VALID,87.6186,VALID,264.239,VALID,22.3077,VALID,232,VALID,0,
2008-09-10, 08:07:00,VALID,917.457,VALID,0,VALID,87.4076,VALID,262.541,VALID,22.4024,VALID,241,VALID,0,
2008-09-10, 08:08:00,VALID,917.471,VALID,0,VALID,87.2206,VALID,253.388,VALID,22.4341,VALID,254,VALID,0,
2008-09-10, 08:09:00,VALID,917.492,VALID,0,VALID,87.1901,VALID,247.309,VALID,22.4999,VALID,254,VALID,0,
2008-09-10, 08:10:00,VALID,917.515,VALID,0,VALID,87.0731,VALID,236.951,VALID,22.5513,VALID,254,VALID,0,
2008-09-10, 08:11:00,VALID,917.538,VALID,0,VALID,86.9015,VALID,201.41,VALID,22.607,VALID,254,VALID,0,
2008-09-10, 08:12:00,VALID,917.563,VALID,0,VALID,86.4157,VALID,206.589,VALID,22.646,VALID,254,VALID,0,
2008-09-10, 08:13:00,VALID,917.578,VALID,0,VALID,86.3076,VALID,216.76,VALID,22.7538,VALID,254,VALID,0,
2008-09-10, 08:14:00,VALID,917.62,VALID,0,VALID,86.1855,VALID,261.607,VALID,22.7827,VALID,255,VALID,0,
2008-09-10, 08:15:00,VALID,917.654,VALID,0,VALID,85.8498,VALID,281.135,VALID,22.8022,VALID,259,VALID,0,
2008-09-10, 08:16:00,VALID,917.681,VALID,0,VALID,86.2021,VALID,269.825,VALID,22.7715,VALID,259,VALID,0,
2008-09-10, 08:17:00,VALID,917.707,VALID,0,VALID,86.9091,VALID,271.456,VALID,22.719,VALID,265,VALID,0,
2008-09-10, 08:18:00,VALID,917.722,VALID,0,VALID,87.2486,VALID,257.82,VALID,22.7025,VALID,272,VALID,0,
2008-09-10, 08:19:00,VALID,917.744,VALID,0,VALID,85.771,VALID,250.535,VALID,22.6971,VALID,271,VALID,0,
2008-09-10, 08:20:00,VALID,917.755,VALID,0,VALID,85.5815,VALID,266.005,VALID,22.6419,VALID,260,VALID,0,
2008-09-10, 08:21:00,VALID,917.773,VALID,0,VALID,86.7896,VALID,304.993,VALID,22.5477,VALID,292,VALID,0,
2008-09-10, 08:22:00,VALID,917.792,VALID,0,VALID,87.1036,VALID,347.92,VALID,22.5087,VALID,294,VALID,0,
2008-09-10, 08:23:00,VALID,917.804,VALID,0,VALID,86.8646,VALID,333.894,VALID,22.4984,VALID,316,VALID,0,
2008-09-10, 08:24:00,VALID,917.829,VALID,0,VALID,87.0375,VALID,350.535,VALID,22.4893,VALID,306,VALID,0,
2008-09-10, 08:25:00,VALID,917.821,VALID,0,VALID,87.3694,VALID,373.782,VALID,22.486,VALID,324,VALID,0,
2008-09-10, 08:26:00,VALID,917.809,VALID,0,VALID,86.9218,VALID,389.082,VALID,22.5152,VALID,9,VALID,0.0517361,
2008-09-10, 08:27:00,VALID,917.794,VALID,0,VALID,86.2746,VALID,388.81,VALID,22.5412,VALID,15,VALID,0.792708,
2008-09-10, 08:28:00,VALID,917.79,VALID,0,VALID,86.3597,VALID,406.046,VALID,22.509,VALID,350,VALID,0.400213,
2008-09-10, 08:29:00,VALID,917.789,VALID,0,VALID,87.5436,VALID,443.964,VALID,22.5675,VALID,32,VALID,0.723704,
2008-09-10, 08:30:00,VALID,917.771,VALID,0,VALID,86.6611,VALID,484.361,VALID,22.5477,VALID,33,VALID,0.00443892,
2008-09-10, 08:31:00,VALID,917.779,VALID,0,VALID,87.1138,VALID,516.047,VALID,22.6454,VALID,19,VALID,0.232515,
2008-09-10, 08:32:00,VALID,917.785,VALID,0,VALID,87.5919,VALID,490.474,VALID,22.7756,VALID,24,VALID,0.194169,
2008-09-10, 08:33:00,VALID,917.783,VALID,0,VALID,87.5182,VALID,465.886,VALID,22.9017,VALID,43,VALID,0.842773,
2008-09-10, 08:34:00,VALID,917.789,VALID,0,VALID,85.6845,VALID,458.533,VALID,22.9732,VALID,43,VALID,1.05431,
2008-09-10, 08:35:00,VALID,917.791,VALID,0,VALID,85.8333,VALID,431.551,VALID,23.1064,VALID,30,VALID,0.613889,
2008-09-10, 08:36:00,VALID,917.839,VALID,0,VALID,85.3412,VALID,401.817,VALID,23.3086,VALID,40,VALID,0.281597,
2008-09-10, 08:37:00,VALID,917.852,VALID,0,VALID,84.4422,VALID,350.994,VALID,23.4708,VALID,257,VALID,0.219703,
2008-09-10, 08:38:00,VALID,917.887,VALID,0,VALID,85.003,VALID,336.526,VALID,23.4681,VALID,266,VALID,0,
2008-09-10, 08:39:00,VALID,917.918,VALID,0,VALID,85.0627,VALID,333.894,VALID,23.4424,VALID,241,VALID,0,
2008-09-10, 08:40:00,VALID,917.947,VALID,0,VALID,85.2865,VALID,324.198,VALID,23.4811,VALID,241,VALID,0,
2008-09-10, 08:41:00,VALID,917.966,VALID,0,VALID,85.6718,VALID,313.517,VALID,23.523,VALID,292,VALID,0.247396,
2008-09-10, 08:42:00,VALID,917.977,VALID,0,VALID,86.7005,VALID,309.883,VALID,23.5331,VALID,312,VALID,0,
2008-09-10, 08:43:00,VALID,917.986,VALID,0,VALID,85.9592,VALID,309.425,VALID,23.5579,VALID,335,VALID,0.144622,
2008-09-10, 08:44:00,VALID,917.998,VALID,0,VALID,85.05,VALID,312.753,VALID,23.5207,VALID,356,VALID,0.128815,
2008-09-10, 08:45:00,VALID,918,VALID,0,VALID,84.6494,VALID,319.732,VALID,23.513,VALID,337,VALID,0.127418,
2008-09-10, 08:46:00,VALID,918.005,VALID,0,VALID,84.2667,VALID,328.749,VALID,23.6565,VALID,260,VALID,0.158918,
2008-09-10, 08:47:00,VALID,918.01,VALID,0,VALID,82.7064,VALID,332.264,VALID,23.7475,VALID,207,VALID,0,
2008-09-10, 08:48:00,VALID,918.013,VALID,0,VALID,81.5429,VALID,336.424,VALID,23.8284,VALID,89,VALID,0.362602,
2008-09-10, 08:49:00,VALID,918.02,VALID,0,VALID,79.3227,VALID,340.602,VALID,23.8346,VALID,28,VALID,0.231445,
2008-09-10, 08:50:00,VALID,918.023,VALID,0,VALID,79.5986,VALID,343.726,VALID,23.9421,VALID,28,VALID,0.605564,
2008-09-10, 08:51:00,VALID,918.035,VALID,0,VALID,79.9254,VALID,351.384,VALID,23.982,VALID,30,VALID,0.370808,
2008-09-10, 08:52:00,VALID,918.056,VALID,0,VALID,81.4743,VALID,352.182,VALID,23.8966,VALID,14,VALID,1.18872,
2008-09-10, 08:53:00,VALID,918.051,VALID,0,VALID,80.8257,VALID,352.115,VALID,23.7481,VALID,23,VALID,1.57598,
2008-09-10, 08:54:00,VALID,918.078,VALID,0,VALID,81.2047,VALID,344.218,VALID,23.5139,VALID,28,VALID,1.93173,
2008-09-10, 08:55:00,VALID,918.072,VALID,0,VALID,82.6072,VALID,338.326,VALID,23.3485,VALID,39,VALID,0.784784,
2008-09-10, 08:56:00,VALID,918.105,VALID,0,VALID,84.006,VALID,337.29,VALID,23.3193,VALID,23,VALID,0.775298,
2008-09-10, 08:57:00,VALID,918.114,VALID,0,VALID,83.3473,VALID,343.115,VALID,23.3937,VALID,30,VALID,1.55736,
2008-09-10, 08:58:00,VALID,918.142,VALID,0,VALID,82.9836,VALID,350.824,VALID,23.3677,VALID,42,VALID,1.36757,
2008-09-10, 08:59:00,VALID,918.154,VALID,0,VALID,82.7751,VALID,355.63,VALID,23.4034,VALID,10,VALID,1.51339,
2008-09-10, 09:00:00,VALID,918.175,VALID,0,VALID,82.3593,VALID,351.622,VALID,23.4149,VALID,355,VALID,1.17873,
2008-09-10, 09:01:00,VALID,918.192,VALID,0,VALID,82.3517,VALID,345.628,VALID,23.4214,VALID,17,VALID,1.16334,
2008-09-10, 09:02:00,VALID,918.215,VALID,0,VALID,81.6472,VALID,338.751,VALID,23.373,VALID,343,VALID,1.45759,
2008-09-10, 09:03:00,VALID,918.24,VALID,0,VALID,82.6518,VALID,340.534,VALID,23.3018,VALID,1,VALID,1.38524,
2008-09-10, 09:04:00,VALID,918.241,VALID,0,VALID,83.1655,VALID,352.047,VALID,23.2103,VALID,22,VALID,0.957812,
2008-09-10, 09:05:00,VALID,918.266,VALID,0,VALID,82.6111,VALID,366.107,VALID,23.1843,VALID,348,VALID,1.53013,
2008-09-10, 09:06:00,VALID,918.299,VALID,0,VALID,83.327,VALID,374.597,VALID,23.1654,VALID,358,VALID,0.939258,
2008-09-10, 09:07:00,VALID,918.317,VALID,0,VALID,82.4826,VALID,393.157,VALID,23.1828,VALID,345,VALID,1.18385,
2008-09-10, 09:08:00,VALID,918.319,VALID,0,VALID,82.8349,VALID,430.872,VALID,23.1698,VALID,12,VALID,0.0741279,
2008-09-10, 09:09:00,VALID,918.341,VALID,0,VALID,84.034,VALID,510.376,VALID,23.244,VALID,16,VALID,0.0671503,
2008-09-10, 09:10:00,VALID,918.339,VALID,0,VALID,83.1032,VALID,566.803,VALID,23.4096,VALID,342,VALID,0.383194,
2008-09-10, 09:11:00,VALID,918.328,VALID,0,VALID,83.0892,VALID,524.249,VALID,23.4814,VALID,8,VALID,0.581364,
2008-09-10, 09:12:00,VALID,918.329,VALID,0,VALID,82.9544,VALID,504.246,VALID,23.6013,VALID,19,VALID,1.26302,
2008-09-10, 09:13:00,VALID,918.327,VALID,0,VALID,82.9417,VALID,507.795,VALID,23.767,VALID,8,VALID,0.682049,
2008-09-10, 09:14:00,VALID,918.328,VALID,0,VALID,81.815,VALID,444.219,VALID,23.9138,VALID,16,VALID,1.81157,
2008-09-10, 09:15:00,VALID,918.342,VALID,0,VALID,79.9801,VALID,440.873,VALID,23.9129,VALID,8,VALID,1.5238,
2008-09-10, 09:16:00,VALID,918.329,VALID,0,VALID,79.6406,VALID,428.834,VALID,23.972,VALID,10,VALID,1.39777,
2008-09-10, 09:17:00,VALID,918.312,VALID,0,VALID,79.9102,VALID,442.283,VALID,23.9492,VALID,21,VALID,2.1176,
2008-09-10, 09:18:00,VALID,918.33,VALID,0,VALID,80.2446,VALID,412.583,VALID,23.7283,VALID,27,VALID,1.95145,
2008-09-10, 09:19:00,VALID,918.334,VALID,0,VALID,81.9193,VALID,385.533,VALID,23.78,VALID,33,VALID,1.49769,
2008-09-10, 09:20:00,VALID,918.358,VALID,0,VALID,80.2421,VALID,383.546,VALID,23.8813,VALID,16,VALID,1.07903,
2008-09-10, 09:21:00,VALID,918.388,VALID,0,VALID,80.4722,VALID,379.352,VALID,23.842,VALID,30,VALID,1.6468,
2008-09-10, 09:22:00,VALID,918.407,VALID,0,VALID,79.1294,VALID,374.835,VALID,23.6793,VALID,40,VALID,1.75818,
2008-09-10, 09:23:00,VALID,918.408,VALID,0,VALID,80.2929,VALID,369.384,VALID,23.4749,VALID,36,VALID,1.69028,
2008-09-10, 09:24:00,VALID,918.437,VALID,0,VALID,81.4285,VALID,389.795,VALID,23.446,VALID,48,VALID,0.913462,
2008-09-10, 09:25:00,VALID,918.456,VALID,0,VALID,82.6657,VALID,385.329,VALID,23.5499,VALID,22,VALID,1.21341,
2008-09-10, 09:26:00,VALID,918.452,VALID,0,VALID,83.931,VALID,417.44,VALID,23.7319,VALID,11,VALID,1.23098,
2008-09-10, 09:27:00,VALID,918.483,VALID,0,VALID,81.3878,VALID,407.88,VALID,23.7803,VALID,14,VALID,2.08092,
2008-09-10, 09:28:00,VALID,918.483,VALID,0,VALID,80.7647,VALID,428.885,VALID,23.6246,VALID,27,VALID,1.52269,
2008-09-10, 09:29:00,VALID,918.499,VALID,0,VALID,82.9035,VALID,468.111,VALID,23.7676,VALID,11,VALID,1.16043,
2008-09-10, 09:30:00,VALID,918.505,VALID,0,VALID,80.2929,VALID,448.803,VALID,23.8264,VALID,17,VALID,0.745236,
2008-09-10, 09:31:00,VALID,918.527,VALID,0,VALID,80.663,VALID,446.647,VALID,23.9138,VALID,2,VALID,0.828683,
2008-09-10, 09:32:00,VALID,918.538,VALID,0,VALID,80.5142,VALID,428.392,VALID,24.0831,VALID,15,VALID,1.85565,
2008-09-10, 09:33:00,VALID,918.563,VALID,0,VALID,79.3799,VALID,443.047,VALID,24.1088,VALID,358,VALID,1.47035,
2008-09-10, 09:34:00,VALID,918.575,VALID,0,VALID,80.8016,VALID,466.226,VALID,23.9729,VALID,9,VALID,2.54167,
2008-09-10, 09:35:00,VALID,918.639,VALID,0,VALID,79.7805,VALID,468.552,VALID,23.8949,VALID,5,VALID,1.66474,
2008-09-10, 09:36:00,VALID,918.64,VALID,0,VALID,79.4333,VALID,471.184,VALID,23.7812,VALID,26,VALID,1.86101,
2008-09-10, 09:37:00,VALID,918.66,VALID,0,VALID,79.825,VALID,470.233,VALID,23.5635,VALID,38,VALID,1.4908,
2008-09-10, 09:38:00,VALID,918.689,VALID,0,VALID,81.1017,VALID,532.077,VALID,23.6217,VALID,28,VALID,0.737749,
2008-09-10, 09:39:00,VALID,918.692,VALID,0,VALID,80.4671,VALID,497.674,VALID,23.8689,VALID,278,VALID,1.10102,
2008-09-10, 09:40:00,VALID,918.718,VALID,0,VALID,81.5709,VALID,457.328,VALID,24.0063,VALID,17,VALID,1.0814,
2008-09-10, 09:41:00,VALID,918.723,VALID,0,VALID,81.0101,VALID,444.117,VALID,24.1779,VALID,312,VALID,0.269627,
2008-09-10, 09:42:00,VALID,918.724,VALID,0,VALID,79.9013,VALID,451.13,VALID,24.3498,VALID,251,VALID,0.0922619,
2008-09-10, 09:43:00,VALID,918.736,VALID,0,VALID,80.0221,VALID,450.858,VALID,24.5283,VALID,338,VALID,0.214177,
2008-09-10, 09:44:00,VALID,918.724,VALID,0,VALID,78.575,VALID,494.923,VALID,24.6388,VALID,44,VALID,1.43768,
2008-09-10, 09:45:00,VALID,918.694,VALID,0,VALID,77.3911,VALID,467.431,VALID,24.4473,VALID,41,VALID,2.28038,
2008-09-10, 09:46:00,VALID,918.684,VALID,0,VALID,77.8578,VALID,490.627,VALID,24.0213,VALID,52,VALID,2.26332,
2008-09-10, 09:47:00,VALID,918.687,VALID,0,VALID,80.3463,VALID,547.275,VALID,23.7942,VALID,53,VALID,2.17808,
2008-09-10, 09:48:00,VALID,918.69,VALID,0,VALID,82.4712,VALID,578.792,VALID,23.7328,VALID,24,VALID,1.91559,
2008-09-10, 09:49:00,VALID,918.697,VALID,0,VALID,81.3026,VALID,596.706,VALID,23.9023,VALID,18,VALID,1.53767,
2008-09-10, 09:50:00,VALID,918.694,VALID,0,VALID,80.7952,VALID,566.497,VALID,23.9469,VALID,46,VALID,1.9535,
2008-09-10, 09:51:00,VALID,918.704,VALID,0,VALID,81.8913,VALID,560.843,VALID,24.0193,VALID,49,VALID,1.5767,
2008-09-10, 09:52:00,VALID,918.698,VALID,0,VALID,79.6431,VALID,547.479,VALID,24.1041,VALID,45,VALID,1.0971,
2008-09-10, 09:53:00,VALID,918.702,VALID,0,VALID,79.5134,VALID,555.392,VALID,24.1073,VALID,92,VALID,0.697493,
2008-09-10, 09:54:00,VALID,918.691,VALID,0,VALID,79.5808,VALID,536.391,VALID,24.2793,VALID,5,VALID,0.744978,
2008-09-10, 09:55:00,VALID,918.663,VALID,0,VALID,79.4333,VALID,529.072,VALID,24.4418,VALID,32,VALID,1.50688,
2008-09-10, 09:56:00,VALID,918.641,VALID,0,VALID,80.4595,VALID,527.73,VALID,24.4938,VALID,21,VALID,1.26353,
2008-09-10, 09:57:00,VALID,918.647,VALID,0,VALID,80.2179,VALID,501.359,VALID,24.7086,VALID,4,VALID,0.648624,
2008-09-10, 09:58:00,VALID,918.642,VALID,0,VALID,77.7256,VALID,483.088,VALID,24.7996,VALID,49,VALID,0.443132,
2008-09-10, 09:59:00,VALID,918.651,VALID,0,VALID,77.7039,VALID,484.412,VALID,24.9039,VALID,86,VALID,0.119978,
2008-09-10, 10:00:00,VALID,918.65,VALID,0,VALID,77.634,VALID,475.429,VALID,25.1672,VALID,154,VALID,0.0957961,
2008-09-10, 10:01:00,VALID,918.642,VALID,0,VALID,76.2301,VALID,466.769,VALID,25.3587,VALID,31,VALID,1.5318,
2008-09-10, 10:02:00,VALID,918.639,VALID,0,VALID,77.3632,VALID,443.098,VALID,25.1799,VALID,3,VALID,1.3632,
2008-09-10, 10:03:00,VALID,918.61,VALID,0,VALID,75.9402,VALID,434.692,VALID,25.1084,VALID,341,VALID,0.255609,
2008-09-10, 10:04:00,VALID,918.592,VALID,0,VALID,76.7439,VALID,442.945,VALID,25.1506,VALID,8,VALID,0.530729,
2008-09-10, 10:05:00,VALID,918.565,VALID,0,VALID,76.5455,VALID,460.164,VALID,25.2546,VALID,29,VALID,1.06678,
2008-09-10, 10:06:00,VALID,918.534,VALID,0,VALID,76.8482,VALID,467.194,VALID,25.0138,VALID,29,VALID,2.24273,
2008-09-10, 10:07:00,VALID,918.507,VALID,0,VALID,78.313,VALID,471.116,VALID,24.8793,VALID,19,VALID,2.02598,
2008-09-10, 10:08:00,VALID,918.497,VALID,0,VALID,78.3677,VALID,567.058,VALID,24.824,VALID,13,VALID,1.19331,
2008-09-10, 10:09:00,VALID,918.464,VALID,0,VALID,78.9832,VALID,451.283,VALID,24.9082,VALID,36,VALID,1.19627,
2008-09-10, 10:10:00,VALID,918.438,VALID,0,VALID,77.9379,VALID,447.139,VALID,25.0447,VALID,31,VALID,1.66094,
2008-09-10, 10:11:00,VALID,918.412,VALID,0,VALID,78.0854,VALID,505.044,VALID,25.1003,VALID,32,VALID,2.26274,
2008-09-10, 10:12:00,VALID,918.408,VALID,0,VALID,76.3001,VALID,632.587,VALID,25.0548,VALID,21,VALID,1.63077,
2008-09-10, 10:13:00,VALID,918.39,VALID,0,VALID,76.9931,VALID,725.302,VALID,24.9251,VALID,40,VALID,1.13567,
2008-09-10, 10:14:00,VALID,918.372,VALID,0,VALID,77.8603,VALID,1020.29,VALID,25.123,VALID,12,VALID,1.33412,
2008-09-10, 10:15:00,VALID,918.338,VALID,0,VALID,76.9562,VALID,861.488,VALID,25.2202,VALID,28,VALID,2.17344,
2008-09-10, 10:16:00,VALID,918.307,VALID,0,VALID,79.6368,VALID,1039.36,VALID,25.3795,VALID,22,VALID,1.43025,
2008-09-10, 10:17:00,VALID,918.284,VALID,0,VALID,76.7515,VALID,1033.96,VALID,25.6951,VALID,21,VALID,2.32866,
2008-09-10, 10:18:00,VALID,918.257,VALID,0,VALID,75.3972,VALID,1016.07,VALID,25.7345,VALID,44,VALID,2.05163,
2008-09-10, 10:19:00,VALID,918.226,VALID,0,VALID,75.855,VALID,1020.28,VALID,25.8424,VALID,48,VALID,2.17931,
2008-09-10, 10:20:00,VALID,918.239,VALID,0,VALID,76.1958,VALID,1010.94,VALID,26.0173,VALID,45,VALID,2.42893,
2008-09-10, 10:21:00,VALID,918.218,VALID,0,VALID,74.586,VALID,1055.29,VALID,26.2004,VALID,18,VALID,2.1305,
2008-09-10, 10:22:00,VALID,918.238,VALID,0,VALID,72.9812,VALID,975.888,VALID,26.3496,VALID,31,VALID,1.39219,
2008-09-10, 10:23:00,VALID,918.233,VALID,0,VALID,73.3029,VALID,775.871,VALID,26.4846,VALID,18,VALID,1.37143,
2008-09-10, 10:24:00,VALID,918.248,VALID,0,VALID,72.7014,VALID,625.659,VALID,26.6837,VALID,4,VALID,0.736719,
2008-09-10, 10:25:00,VALID,918.225,VALID,0,VALID,71.791,VALID,425.2,VALID,26.726,VALID,353,VALID,0.691311,
2008-09-10, 10:26:00,VALID,918.221,VALID,0,VALID,71.6791,VALID,425.404,VALID,26.6606,VALID,43,VALID,0.924253,
2008-09-10, 10:27:00,VALID,918.238,VALID,0,VALID,71.3523,VALID,471.371,VALID,26.4134,VALID,350,VALID,1.00426,
2008-09-10, 10:28:00,VALID,918.236,VALID,0,VALID,71.5621,VALID,479.759,VALID,26.2512,VALID,227,VALID,0.773438,
2008-09-10, 10:29:00,VALID,918.224,VALID,0,VALID,73.5076,VALID,518.696,VALID,26.2027,VALID,300,VALID,0.915015,
2008-09-10, 10:30:00,VALID,918.24,VALID,0,VALID,74.5033,VALID,460.673,VALID,26.1442,VALID,22,VALID,2.01772,
2008-09-10, 10:31:00,VALID,918.248,VALID,0,VALID,73.1643,VALID,409.085,VALID,25.9488,VALID,344,VALID,0.686498,
2008-09-10, 10:32:00,VALID,918.253,VALID,0,VALID,73.6539,VALID,386.772,VALID,25.8454,VALID,351,VALID,0.000186012,
2008-09-10, 10:33:00,VALID,918.255,VALID,0,VALID,74.1752,VALID,364.205,VALID,25.8291,VALID,355,VALID,0.0265997,
2008-09-10, 10:34:00,VALID,918.257,VALID,0,VALID,74.9446,VALID,340.024,VALID,25.8841,VALID,47,VALID,0.326029,
2008-09-10, 10:35:00,VALID,918.271,VALID,0,VALID,74.394,VALID,312.294,VALID,26.0275,VALID,297,VALID,0.34043,
2008-09-10, 10:36:00,VALID,918.277,VALID,0,VALID,73.3398,VALID,291.816,VALID,26.1214,VALID,257,VALID,0.469703,
2008-09-10, 10:37:00,VALID,918.282,VALID,0,VALID,73.0575,VALID,283.75,VALID,26.0284,VALID,294,VALID,0.647837,
2008-09-10, 10:38:00,VALID,918.277,VALID,0,VALID,74.8708,VALID,286.619,VALID,25.9344,VALID,341,VALID,0.0360137,
2008-09-10, 10:39:00,VALID,918.283,VALID,0,VALID,75.5155,VALID,295.365,VALID,25.8857,VALID,345,VALID,0.611793,
2008-09-10, 10:40:00,VALID,918.279,VALID,0,VALID,75.1455,VALID,308.932,VALID,25.8333,VALID,241,VALID,0.999814,
2008-09-10, 10:41:00,VALID,918.281,VALID,0,VALID,76.3955,VALID,324.775,VALID,25.7072,VALID,309,VALID,0.369922,
2008-09-10, 10:42:00,VALID,918.277,VALID,0,VALID,77.4242,VALID,340.703,VALID,25.6262,VALID,225,VALID,0.680889,
2008-09-10, 10:43:00,VALID,918.269,VALID,0,VALID,79.0887,VALID,353.456,VALID,25.5443,VALID,251,VALID,0.374822,
2008-09-10, 10:44:00,VALID,918.271,VALID,0,VALID,79.811,VALID,359.773,VALID,25.5345,VALID,255,VALID,0,
2008-09-10, 10:45:00,VALID,918.265,VALID,0,VALID,80.6121,VALID,363.322,VALID,25.5635,VALID,267,VALID,0.00114329,
2008-09-10, 10:46:00,VALID,918.243,VALID,0,VALID,80.0246,VALID,364.85,VALID,25.5765,VALID,256,VALID,0.293713,
2008-09-10, 10:47:00,VALID,918.216,VALID,0,VALID,79.4003,VALID,364.375,VALID,25.4435,VALID,264,VALID,0.560501,
2008-09-10, 10:48:00,VALID,918.193,VALID,0,VALID,80.5994,VALID,366.854,VALID,25.2026,VALID,252,VALID,0.988459,
2008-09-10, 10:49:00,VALID,918.167,VALID,0,VALID,82.0719,VALID,373.731,VALID,24.9231,VALID,264,VALID,1.20329,
2008-09-10, 10:50:00,VALID,918.133,VALID,0,VALID,82.7827,VALID,382.578,VALID,24.6152,VALID,235,VALID,0.983665,
2008-09-10, 10:51:00,VALID,918.101,VALID,0,VALID,82.7153,VALID,394.244,VALID,24.4489,VALID,239,VALID,1.03664,
2008-09-10, 10:52:00,VALID,918.068,VALID,0,VALID,82.016,VALID,411.208,VALID,24.3933,VALID,232,VALID,0.606027,
2008-09-10, 10:53:00,VALID,918.046,VALID,0,VALID,82.5716,VALID,428.511,VALID,24.4716,VALID,271,VALID,0.745508,
2008-09-10, 10:54:00,VALID,918.026,VALID,0,VALID,82.3695,VALID,452.607,VALID,24.4749,VALID,265,VALID,0.792799,
2008-09-10, 10:55:00,VALID,918.003,VALID,0,VALID,81.9282,VALID,504.246,VALID,24.4908,VALID,278,VALID,0.586846,
2008-09-10, 10:56:00,VALID,917.977,VALID,0,VALID,80.78,VALID,575.277,VALID,24.5461,VALID,264,VALID,0.919034,
2008-09-10, 10:57:00,VALID,917.941,VALID,0,VALID,81.4781,VALID,548.209,VALID,24.6338,VALID,226,VALID,0.924107,
2008-09-10, 10:58:00,VALID,917.927,VALID,0,VALID,78.4847,VALID,577.314,VALID,24.6666,VALID,262,VALID,1.49352,
2008-09-10, 10:59:00,VALID,917.923,VALID,0,VALID,78.7225,VALID,766.651,VALID,24.5529,VALID,248,VALID,1.10338,
2008-09-10, 11:00:00,VALID,917.898,VALID,0,VALID,79.034,VALID,768.111,VALID,24.6826,VALID,230,VALID,0.586825,
2008-09-10, 11:01:00,VALID,917.887,VALID,0,VALID,79.4435,VALID,676.516,VALID,24.9133,VALID,252,VALID,0.907774,
2008-09-10, 11:02:00,VALID,917.866,VALID,0,VALID,78.8891,VALID,608.865,VALID,25.0141,VALID,275,VALID,1.34952,
2008-09-10, 11:03:00,VALID,917.855,VALID,0,VALID,79.1307,VALID,470.743,VALID,24.9263,VALID,258,VALID,1.2359,
2008-09-10, 11:04:00,VALID,917.864,VALID,0,VALID,79.5096,VALID,470.811,VALID,24.7833,VALID,241,VALID,1.04633,
2008-09-10, 11:05:00,VALID,917.842,VALID,0,VALID,80.8448,VALID,549.635,VALID,24.731,VALID,234,VALID,0.935902,
2008-09-10, 11:06:00,VALID,917.817,VALID,0,VALID,81.1678,VALID,571.32,VALID,24.7836,VALID,271,VALID,1.04006,
2008-09-10, 11:07:00,VALID,917.805,VALID,0,VALID,81.7934,VALID,809.459,VALID,24.8727,VALID,249,VALID,0.762767,
2008-09-10, 11:08:00,VALID,917.778,VALID,0,VALID,81.918,VALID,791.443,VALID,25.0908,VALID,249,VALID,1.31486,
2008-09-10, 11:09:00,VALID,917.748,VALID,0,VALID,80.457,VALID,563.441,VALID,25.0973,VALID,268,VALID,1.83212,
2008-09-10, 11:10:00,VALID,917.725,VALID,0,VALID,80.9376,VALID,551.877,VALID,24.8827,VALID,253,VALID,2.5529,
2008-09-10, 11:11:00,VALID,917.692,VALID,0,VALID,82.7687,VALID,610.699,VALID,24.6439,VALID,258,VALID,1.23457,
2008-09-10, 11:12:00,VALID,917.658,VALID,0,VALID,83.4071,VALID,741.111,VALID,24.6942,VALID,239,VALID,1.36065,